sat.trackr.live / text

‹ back to catalog

HULIANWANG DIGUI-159

NORAD 68133 · 2026-047E

PAYLOAD ACTIVE UNKNOWN

§ Identity

Operator
Country
PRC
Launch date
2026-03-12
Launch site
WSC
Launch vehicle
Mass (kg)
RCS (m²)

External: N2YO · Heavens-Above · Gunter

§ Orbital elements

Epoch: 2026-09-19T20:19:20.091648Z

Period
108.33 min
Inclination
50.0011°
Eccentricity
0.0001211
Mean motion
13.29324375 rev/d
Perigee alt
1,148.4 km
Apogee alt
1,150.2 km
Semi-major
7,527.4 km
B*
4.0285e-5
RAAN
76.5676°
Arg perigee
80.9026°
Mean anomaly
279.1983°
Rev number
2,566

§ Raw data

HULIANWANG DIGUI-1591 68133U 26047E   26262.84676032 -.00000105  00000+0  40285-4 0  99932 68133  50.0011  76.5676 0001211  80.9026 279.1983 13.29324375 25664

JSON: /api/v1/satellites/68133 · /tle

For live sub-satellite position, see the globe view (requires WebGL).

§ Visibility from observer

Set your observer location to see the next 7 days of passes ≥ 10°. The values pass through the URL so the page stays shareable.

No JS? Fill the form by hand. The geolocation button needs JavaScript.